Regional Weather Roundup
Issued by NWS

Home | Current Version | Previous Version | Graphics & Text | Print | Product List | Glossary Off
Versions: 1 2 3 4 5 6 7 8 9 10 11 12 13 14 15 16 17 18 19 20 21 22 23 24 25 26 27 28 29 30 31 32 33 34 35 36 37 38 39 40 41 42 43 44 45 46 47 48 49 50

000
ASUS43 KMKX 291900
RWRWI

WISCONSIN REGIONAL WEATHER ROUNDUP
NATIONAL WEATHER SERVICE MILWAUKEE/SULLIVAN WI
200 PM CDT MON AUG 29 2016

NOTE: "FAIR" INDICATES FEW OR NO CLOUDS BELOW 12,000 FEET WITH NO
SIGNIFICANT WEATHER AND/OR OBSTRUCTIONS TO VISIBILITY.

WIZ001-002-006>008-014>016-023>028-292000-
NORTHWEST WISCONSIN

CITY           SKY/WX    TMP DP  RH WIND       PRES   REMARKS
SUPERIOR ARPT  CLOUDY    76  66  71 W8        30.12S
ASHLAND        MOSUNNY   81  66  60 SW10      30.14S HX  83
HAYWARD        CLOUDY    82  64  54 SW9       30.16R HX  83
SIREN          SUNNY     84  65  53 SW9G16    30.15S HX  86
CUMBERLAND     CLOUDY    79  66  65 S10       30.16S HX  81
RICE LAKE      CLOUDY    82  67  62 S8G16     30.17S HAZE    HX  84
CHETEK         NOT AVBL
LADYSMITH      CLOUDY    81  68  65 S10G17    30.18S HX  84
EAU CLAIRE     NOT AVBL
MENOMONIE      PTSUNNY   79  70  74 S8        30.18S HX  81
NEW RICHMOND   CLOUDY    80  67  64 S15G23    30.15F HX  82
OSCEOLA        MOSUNNY   82  68  61 S13       30.17S HX  85
$$

WIZ003>005-009-010-017-018-292000-
NORTH CENTRAL WISCONSIN

CITY           SKY/WX    TMP DP  RH WIND       PRES   REMARKS
MANITOWISH WTR NOT AVBL
ARBOR VITAE    MOSUNNY   82  67  60 SW7       30.19F HX  85
WOODRUFF       MOSUNNY   82  67  60 SW7       30.19F HX  85
RHINELANDER    SUNNY     82  69  64 SW10      30.20F HX  85
EAGLE RIVER    CLOUDY    79  64  59 W7        30.20S HX  81
LAND O LAKES   MOSUNNY   79  64  59 S7        30.21F HX  80
PHILLIPS       SUNNY     79  69  70 SW7       30.17S HX  81
TOMAHAWK       CLOUDY    81  69  67 CALM      30.20S HX  84
MEDFORD        CLOUDY    78  72  81 SW9       30.20S HX  80
MERRILL        CLOUDY    81  71  70 SW7       30.20F HX  85
$$

WIZ029-030-035-036-043>047-292000-
CENTRAL WISCONSIN

CITY           SKY/WX    TMP DP  RH WIND       PRES   REMARKS
WAUSAU         PTSUNNY   79  69  71 SW10      30.19F HX  81
MOSINEE        NOT AVBL
MARSHFIELD     CLOUDY    79  69  71 S13       30.20F HX  81
STEVENS POINT  PTSUNNY   80  68  67 S8        30.22F HX  82
WAUPACA        CLOUDY    85  70  59 SE9       30.23F HX  90
WAUTOMA        CLOUDY    83  71  67 S9        30.22F HX  87
WISC RAPIDS    CLOUDY    84  68  58 SW13      30.22F HX  87
CAMP DOUGLAS   NOT AVBL
$$

WIZ011>013-019>022-031-037>040-048>050-292000-
NORTHEAST WISCONSIN

CITY           SKY/WX    TMP DP  RH WIND       PRES   REMARKS
ANTIGO         MOSUNNY   80  69  70 S8        30.22S HX  82
SHAWANO        PTSUNNY   83  69  63 SW7G16    30.20F HX  86
OCONTO         NOT AVBL
STURGEON BAY   CLOUDY    78  68  71 S13       30.21F HX  80
GREEN BAY      MOSUNNY   81  71  71 SW10      30.21F HX  85
MANITOWOC      NOT AVBL
APPLETON       PTSUNNY   81  66  61 S9        30.22F HX  83
CLINTONVILLE   PTSUNNY   82  68  61 S12G17    30.20F HX  85
OSHKOSH        MOSUNNY   82  70  66 S8        30.22F HX  86
$$

WIZ032>034-041-042-053>061-292000-
SOUTHWEST WISCONSIN

CITY           SKY/WX    TMP DP  RH WIND       PRES   REMARKS
LA CROSSE      CLOUDY    83  71  67 S8        30.19F HX  87
SPARTA         PTSUNNY   81  70  69 S8        30.22F HX  84
VIROQUA        CLOUDY    80  71  73 CALM      30.24F HX  83
BOSCOBEL       CLOUDY    81  71  71 CALM      30.23F HX  85
PRAIRIE DU CHI CLOUDY    78  71  78 CALM      30.22F HX  80
PLATTEVILLE    CLOUDY    80  75  86 E5        30.25F HX  85
$$

WIZ056-057-062-063-064-067-068-292000-
SOUTH CENTRAL WISCONSIN

CITY           SKY/WX    TMP DP  RH WIND       PRES   REMARKS
REEDSBURG      NOT AVBL
BARABOO/DELLS  CLOUDY    81  70  67 SW7       30.25S HX  85
LONE ROCK      NOT AVBL
MINERAL POINT  CLOUDY    81  72  74 E5        30.26F HX  84
MADISON        PTSUNNY   80  69  69 S5        30.23F HX  83
MIDDLETON      PTSUNNY   82  70  66 SE8       30.25F HX  85
WATERTOWN      MOSUNNY   82  70  68 S5        30.24F HX  86
MONROE         CLOUDY    81  70  69 E5        30.25F HX  84
JANESVILLE     MOSUNNY   84  70  61 SE6       30.23F HX  88
$$

WIZ051-052-058>065-066-070>072-292000-
SOUTHEAST WISCONSIN

CITY           SKY/WX    TMP DP  RH WIND       PRES   REMARKS
MILWAUKEE      PTSUNNY   81  63  54 SE7       30.24F HX  82
WAUKESHA       MOSUNNY   81  66  61 SE8       30.25F HX  83
MILWAUKEE/TIMM SUNNY     82  61  47 SE6       30.26F HX  83
RACINE         SUNNY     81  68  64 SE6       30.26F HX  84
BURLINGTON     CLOUDY    80  67  65 E5        30.26S HX  82
KENOSHA        CLOUDY    82  71  69 E9        30.25F HX  86
FOND DU LAC    MOSUNNY   82  69  64 VRB3      30.23F HX  85
SHEBOYGAN      SUNNY     80  68  66 S7        30.24F HX  83
WEST BEND      MOSUNNY   81  68  65 S6        30.25F HX  83
JUNEAU         MOSUNNY   81  70  68 S7        30.26F HX  85
$$

LSZ147-162-292000-
LAKE SUPERIOR

STATION/POSITION TIME  TEMP    WIND        PRES    WAVE
                       AIR SEA DIR/SP/G            HT/PER
                 (UTC) (F)     (DEG/KT/KT) (MB)    (FT/S)
W MID LAKE BUOY  1750   67 68  200/  8/ 10 1019.7F   1/ 4
DEVILS ISLAND    1800   67     130/  6/  8 1020.4F
PORT WING        1800   71     310/  7/  7 1020.3
SAXON HARBOR     1840   74      60/  4/  8 1020.3F
$$

LMZ867-665-643>646-292000-
LAKE MICHIGAN

STATION/POSITION TIME  TEMP    WIND        PRES    WAVE
                       AIR SEA DIR/SP/G            HT/PER
                 (UTC) (F)     (DEG/KT/KT) (MB)    (FT/S)
CHAMBERS ISLAND  1800   78     160/  6/ 11 1022.7F
N MID LAKE BUOY  1750   70 71  180/ 10/ 12 1023.3F   1/ 3
NORTHPORT PIER   1800   72     160/ 11/ 18 1023.0F
SISTER BAY       1707   79     180/ 14/ 17   N/A
KEWAUNEE LAKESHO 1800   67     170/  6/  6 1023.8F
SHEBOYGAN LAKESH 1800   69     140/  7/  7 1024.3F
PORT WASHINGTON  1840   71      50/  3/  4 1025.1F
ATWATER BUOY     1800   69      20/  2/  2   N/A
MILWAUKEE LAKESH 1810   68      60/  5/  5   N/A
S MID LAKE BUOY  1750   75 76  150/  2/  4 1024.2F   0
KENOSHA   LAKESH 1800   71      40/  5/  6 1024.4S
$$

TC  - TEMPERATURE IN CELSIUS
VSB - VISIBILITY IN STATUTE MILES
WCI - WIND CHILL INDEX
HX  - HEAT INDEX





USA.gov is the U.S. government's official web portal to all federal, state and local government web resources and services.